CAPE
247 147 30 3 4 0 3 3 0 0 0 0 0 0 0 0 0 0 0 0 0 0
4 76 12 0 0 0 0 0 0 0 0 0 0 0 0 0 0 0 0 0 0 0
0 0 0 0 0 0 0 0 0 0 0 0 0 0 0 0 0 0 0 0 0 0
0 0 0 0 0 0 0 0 0 0 0 0 0 0 0 0 0 0 0 0 0 0
0 0 0 0 0 0 0 0 0 0 0 0 0 0 0 0 0 0 0 0 0 0
0 0 0 0 0 0 0 0 0 0 0 0 0 0 0 0 0 0 0 0 0 0
0 0 0 0 0 0 0 0 0 0 0 0 0 0 0 0 0 0 0 0 0 0
0 0 0 0 0 0 0 0 0 0 0 0 0 0 0 0 0 0 0 0 0 0
0 0 0 0 0 0 0 0 0 0 0 0 0 0 0 0 0 0 0 0 0 0
0 0 0 0 0 0 0 0 0 0 0 0 0 0 0 0 0 0 0 0 0 0
0 0 0 0 0 0 0 0 0 0 0 0 0 1 1 0 0 0 0 0 0 0
0 0 0 0 0 0 0 0 0 0 0 0 0 1 1 0 0 0 0 0 0 0
0 0 0 0 0 0 0 0 0 0 0 0 0 1 1 0 0 0 0 0 0 0
0 0 0 0 0 0 0 1 1 0 0 0 0 0 1 0 0 0 0 0 0 0
CIN
-112 -107 -129 -134 -151 -21 -212 -222 0 0 0 0 0 0 0 0 0 0 0 0 0 0
-148 -155 -200 0 0 0 0 0 0 0 0 0 0 0 0 0 0 0 0 0 0 -1
0 0 0 0 0 0 0 0 0 0 0 0 0 0 0 0 0 0 0 0 0 0
0 0 0 0 0 0 0 0 0 0 0 0 0 0 0 0 0 0 0 0 0 0
0 0 0 0 0 0 0 0 0 0 0 0 0 0 0 0 0 0 0 0 0 0
0 0 0 0 0 0 0 0 0 0 0 0 0 0 0 0 0 0 0 0 0 0
0 0 0 0 0 0 0 0 0 0 0 0 0 0 0 0 0 0 0 0 0 0
0 0 0 0 0 0 0 0 0 0 0 0 0 0 0 0 0 0 0 0 0 0
0 0 0 0 0 0 0 0 0 0 0 0 0 0 0 0 0 0 0 0 0 0
0 0 0 0 0 0 0 0 0 0 0 0 0 0 0 0 0 0 0 0 0 0
0 0 0 0 0 0 0 0 0 0 0 0 0 0 0 0 0 0 0 0 0 0
0 0 0 0 0 0 0 0 0 0 0 0 0 0 0 0 0 0 0 0 0 0
0 0 0 0 0 0 0 0 0 0 0 0 0 0 0 0 0 0 0 0 0 0
0 0 0 0 0 0 0 0 0 0 0 0 0 0 0 0 0 0 0 0 0 0
Wind_Speed
23 22 22 20 19 19 17 15 15 17 19 22 25 29 29 28 30 29 30 30 28 28
23 21 21 21 21 21 22 22 22 21 24 24 26 28 28 29 30 30 30 30 28 28
20 20 19 18 20 18 20 22 23 26 25 24 23 25 27 29 30 31 31 29 28 27
19 19 19 19 21 22 22 22 22 24 25 25 26 27 30 31 30 30 30 28 28 27
17 18 20 22 22 21 21 21 22 24 26 27 27 28 29 30 29 29 28 28 27 27
14 15 16 17 17 19 20 22 23 23 25 26 27 27 28 29 28 27 26 25 24 25
16 16 16 15 15 16 16 17 20 22 23 24 25 27 27 27 26 25 25 24 24 24
16 16 15 15 16 17 19 20 21 22 22 24 26 27 28 27 24 24 23 23 23 23
15 14 14 14 15 16 19 20 20 22 24 25 25 25 25 25 24 22 22 22 21 21
13 11 11 13 13 14 17 19 21 22 23 23 24 23 23 22 21 19 20 19 19 19
14 15 13 14 15 15 16 16 18 19 20 22 22 22 21 20 20 19 17 16 16 16
15 15 15 16 15 16 17 17 17 19 20 20 22 20 20 19 18 17 15 14 14 14
16 16 16 16 16 18 20 20 20 20 19 18 18 18 18 17 15 14 12 12 12 11
17 17 17 17 18 19 21 21 21 20 19 18 17 16 14 13 12 11 10 11 11 12
Wind_Direction
279 277 276 274 277 281 279 284 289 297 304 305 304 304 307 309 308 310 309 309 310 311
283 278 275 278 282 285 288 290 293 294 302 301 302 304 306 308 307 309 310 309 309 310
282 284 283 278 278 284 288 289 295 297 300 307 309 307 307 307 308 307 307 310 310 310
284 283 284 284 287 286 290 291 292 296 300 305 308 308 306 306 307 307 307 309 309 309
285 284 284 284 286 290 291 294 295 297 299 303 307 309 309 309 308 308 308 308 308 308
290 289 289 288 291 293 294 295 298 301 302 305 307 309 310 309 309 310 310 311 311 311
291 291 291 292 293 297 300 301 303 305 306 308 309 310 310 311 310 311 311 312 313 312
292 292 292 291 294 297 300 302 304 306 307 308 309 310 310 309 309 309 309 311 313 313
293 292 292 294 298 302 303 305 305 305 307 308 310 313 313 311 309 308 308 310 312 314
289 289 292 296 302 306 306 307 307 309 310 311 313 315 314 315 313 311 311 310 311 313
281 283 288 294 299 306 313 313 314 314 314 315 316 316 316 317 314 311 313 314 312 313
276 278 283 288 294 302 309 311 313 316 317 316 316 316 316 317 314 311 313 314 315 316
277 275 277 283 289 298 305 306 310 314 317 319 319 318 318 318 317 315 314 314 316 321
280 277 276 281 287 294 301 302 306 310 314 317 318 320 320 320 321 319 315 311 313 320